Weather History for Pompano Beach, FL

Change the Weather History Date:

Saturday, August 17, 2013

  Actual Average Record
Temperature  
Mean Temperature 86 °F -  
Max Temperature 91 °F 92 °F 96 °F (1972)
Min Temperature 82 °F 75 °F 65 °F (1976)
Cooling Degree Days 21    
Growing Degree Days 36 (Base 50)    
Moisture  
Dew Point 76 °F    
Average Humidity 72    
Maximum Humidity 82    
Minimum Humidity 63    
Precipitation  
Precipitation 0.00 in - - ()
Sea Level Pressure  
Sea Level Pressure 30.05 in    
Wind  
Wind Speed 9 mph (ESE)    
Max Wind Speed 15 mph    
Max Gust Speed -    
Visibility 10 miles    
Events      
Averages and records for this station are not official NWS values.
T = Trace of Precipitation, MM = Missing Value Source: NWS Daily Summary

Daily Weather History Graph

Daily Weather History Graph

Search for Another Location

Airport:

Trip Planner

Search our weather history database for the weather conditions in past years. The results will help you decide how hot, cold, wet, or windy it might be!

Date:

Astronomy

Aug. 17, 2013 Rise Set
Actual Time 6:53 AM EDT 7:54 PM EDT
Civil Twilight 6:29 AM EDT 8:18 PM EDT
Nautical Twilight 6:01 AM EDT 8:46 PM EDT
Astronomical Twilight 5:32 AM EDT 9:16 PM EDT
Moon 4:59 PM EDT (8/17) 3:05 AM EDT (8/17)
Length of Visible Light 13h 48m
Length of Day
13h 00m
Waxing Gibbous, 84% of the Moon is Illuminated
Aug 17
Waxing Gibbous
Aug 20
Full
Aug 28
Last Quarter
Sep 5
New
Sep 12
First Quarter

Hourly Weather History & Observations

Time (EDT) Temp. Heat Index Dew Point Humidity Pressure Visibility Wind Dir Wind Speed Gust Speed Precip Events Conditions
12:53 AM 84.0 °F 93.7 °F 77.0 °F 79% 30.05 in 10.0 mi ESE 9.2 mph - N/A   Clear
1:53 AM 84.0 °F 94.8 °F 78.1 °F 82% 30.04 in 10.0 mi ESE 6.9 mph - N/A   Scattered Clouds
2:53 AM 84.0 °F 92.6 °F 75.9 °F 76% 30.04 in 10.0 mi East 6.9 mph - N/A   Partly Cloudy
3:53 AM 84.0 °F 93.7 °F 77.0 °F 79% 30.02 in 10.0 mi ESE 9.2 mph - N/A   Unknown
4:53 AM 84.0 °F 91.9 °F 75.0 °F 74% 30.03 in 10.0 mi SE 10.4 mph - N/A   Unknown
5:53 AM 82.9 °F 89.4 °F 73.9 °F 74% 30.03 in 10.0 mi SE 6.9 mph - N/A   Unknown
6:53 AM 82.9 °F 90.2 °F 75.0 °F 77% 30.03 in 10.0 mi SE 9.2 mph - N/A   Unknown
7:53 AM 84.0 °F 92.6 °F 75.9 °F 76% 30.05 in 10.0 mi SE 9.2 mph - N/A   Scattered Clouds
8:53 AM 86.0 °F 96.0 °F 75.9 °F 72% 30.06 in 10.0 mi SE 10.4 mph - N/A   Scattered Clouds
9:53 AM 87.1 °F 98.8 °F 77.0 °F 72% 30.08 in 10.0 mi SE 9.2 mph - N/A   Scattered Clouds
10:53 AM 88.0 °F 100.2 °F 77.0 °F 70% 30.08 in 10.0 mi ESE 11.5 mph - N/A   Scattered Clouds
11:53 AM 88.0 °F 98.5 °F 75.9 °F 67% 30.08 in 10.0 mi East 10.4 mph - N/A   Scattered Clouds
12:53 PM 89.1 °F 100.2 °F 75.9 °F 65% 30.07 in 10.0 mi ESE 12.7 mph - N/A   Scattered Clouds
1:53 PM 89.1 °F 101.4 °F 77.0 °F 67% 30.05 in 10.0 mi ESE 13.8 mph - N/A   Scattered Clouds
2:53 PM 90.0 °F 101.3 °F 75.9 °F 63% 30.04 in 10.0 mi East 10.4 mph - N/A   Scattered Clouds
3:53 PM 88.0 °F 97.5 °F 75.0 °F 65% 30.02 in 10.0 mi ESE 15.0 mph - N/A   Scattered Clouds
4:53 PM 87.1 °F 97.3 °F 75.9 °F 69% 30.02 in 10.0 mi East 9.2 mph - N/A   Scattered Clouds
5:53 PM 87.1 °F 98.8 °F 77.0 °F 72% 30.02 in 10.0 mi East 9.2 mph - N/A   Scattered Clouds
6:53 PM 87.1 °F 94.5 °F 73.0 °F 63% 30.03 in 10.0 mi East 10.4 mph - N/A   Scattered Clouds
7:53 PM 86.0 °F 96.0 °F 75.9 °F 72% 30.05 in 10.0 mi East 10.4 mph - N/A   Scattered Clouds
8:53 PM 86.0 °F 96.0 °F 75.9 °F 72% 30.07 in 10.0 mi East 8.1 mph - N/A   Scattered Clouds
9:53 PM 84.9 °F 93.3 °F 75.0 °F 72% 30.08 in 10.0 mi East 8.1 mph - N/A   Partly Cloudy
10:53 PM 84.0 °F 91.9 °F 75.0 °F 74% 30.09 in 10.0 mi East 9.2 mph - N/A   Partly Cloudy
11:53 PM 84.0 °F 91.9 °F 75.0 °F 74% 30.09 in 10.0 mi East 10.4 mph - N/A   Clear